Tracking 30970 objects as of 3-Jul-2025
HD Live streaming from Space Station
objects crossing your sky now

STARLINK-2506

Track STARLINK-2506 now!
10-day predictions
STARLINK-2506 is classified as:


NORAD ID: 48315
Int'l Code: 2021-036AR
Perigee: 553.4 km
Apogee: 555.3 km
Inclination: 53.1 °
Period: 95.6 minutes
Semi major axis: 6925 km
RCS: Unknown
Launch date: April 29, 2021
Source: United States (US)
Launch site: AIR FORCE EASTERN TEST RANGE (AFETR)
Your satellite tracking list
BLOCK DM-SL R/B
Track 1 satellite(s)




NASA's NSSDC Master Catalog

Two Line Element Set (TLE):
1 48315U 21036AR  25183.87889732  .00000347  00000-0  42202-4 0  9992
2 48315  53.0545 133.0648 0001425  93.4007 266.7145 15.06399744230515
Source of the keplerian elements: AFSPC